Waarnemingen

Advertentie
Mijn weer
Camborne, Groot Brittannië (3808): temperatuur & dauwpunt: 13.10.2017 13:00:00 - 19.10.2017 13:00:00 (BST)Camborne, Groot Brittannië (3808): temperatuur -20cm & temperatuur -100cm: 13.10.2017 13:00:00 - 19.10.2017 13:00:00 (BST)Camborne, Groot Brittannië (3808): windsnelheid & windstoten: 13.10.2017 13:00:00 - 19.10.2017 13:00:00 (BST)Camborne, Groot Brittannië (3808): windrichting: 13.10.2017 13:00:00 - 19.10.2017 13:00:00 (BST)Camborne, Groot Brittannië (3808): luchtdruk: 13.10.2017 13:00:00 - 19.10.2017 13:00:00 (BST)Camborne, Groot Brittannië (3808): zicht: 13.10.2017 13:00:00 - 19.10.2017 13:00:00 (BST)Camborne, Groot Brittannië (3808): Zonneschijnduur: 13.10.2017 13:00:00 - 19.10.2017 13:00:00 (BST)Camborne, Groot Brittannië (3808): neerslag: 13.10.2017 13:00:00 - 19.10.2017 13:00:00 (BST)
Datum & Tijd tt [°C] td [°C] tt -20cm [°C] tt -100cm [°C] ff [km/u] ff [kn] fx [km/u] fx [kn] dd ppp [hPa] vv [km] sd [min] rr [mm]
19.10.2017 13:00:00 13,7 12,6 - - 39 21 68 37 Z 997,5 4,6 0 2,2
19.10.2017 12:00:00 14,3 13,0 - - 34 18 52 28 Z 998,8 6 0 0,2
19.10.2017 11:00:00 14,2 12,8 - - 28 15 - - ZZO 999,7 11 0 0,0
19.10.2017 10:00:00 13,6 12,2 14,7 14,9 26 14 - - ZZO 1001,1 15 0 0,0
19.10.2017 09:00:00 13,3 11,5 - - 24 13 - - Z 1001,6 15 0 0,0
19.10.2017 08:00:00 13,4 11,2 - - 24 13 - - Z 1001,7 19 0 0,0
19.10.2017 07:00:00 13,7 11,0 - - 22 12 - - Z 1002,7 15 0 0,0
19.10.2017 06:00:00 13,5 11,0 - - 18 10 - - Z 1003,2 15 0 0,0
19.10.2017 05:00:00 13,0 11,5 - - 21 11 - - Z 1003,8 15 0 0,0
19.10.2017 04:00:00 13,2 11,7 - - 22 12 - - Z 1004,9 12 0 0,0
19.10.2017 03:00:00 12,9 11,7 - - 18 10 - - Z 1005,9 12 0 0,0
19.10.2017 02:00:00 13,4 12,2 - - 18 10 - - Z 1006,7 12 0 0,0
19.10.2017 01:00:00 13,2 12,4 - - 16 9 - - Z 1007,0 12 - 0,0
19.10.2017 00:00:00 13,7 12,8 - - 21 11 - - Z 1007,3 10 0 0,0
18.10.2017 23:00:00 13,8 13,1 - - 18 10 - - Z 1007,6 8 0 0,0
18.10.2017 22:00:00 13,8 13,1 - - 24 13 - - Z 1008,1 8 0 0,0
18.10.2017 21:00:00 13,8 13,1 - - 18 10 - - Z 1008,0 8 0 0,0
18.10.2017 20:00:00 13,9 13,1 - - 16 9 - - Z 1008,4 10 0 0,0
18.10.2017 19:00:00 14,1 13,1 - - 16 9 - - Z 1008,6 10 0 0,0
18.10.2017 18:00:00 14,5 13,1 - - 13 7 - - Z 1008,4 12 0 0,0
18.10.2017 17:00:00 14,8 13,1 - - 16 9 - - ZZW 1008,5 17 18 0,0
18.10.2017 16:00:00 15,5 13,2 - - 21 11 - - Z 1008,6 20 18 0,0
18.10.2017 15:00:00 15,8 12,8 - - 18 10 - - Z 1008,7 17 6 0,0
18.10.2017 14:00:00 16,0 13,2 - - 11 6 - - Z 1008,9 23 6 0,0
18.10.2017 13:00:00 15,6 12,6 - - 18 10 - - ZZO 1009,3 17 6 0,0
18.10.2017 12:00:00 15,5 12,6 - - 16 9 - - ZO 1009,5 12 6 0,0
18.10.2017 11:00:00 14,2 12,7 - - 15 8 - - ZO 1009,8 10 0 0,0
18.10.2017 10:00:00 14,0 12,6 14,7 15,0 13 7 - - ZO 1009,8 7 0 0,0
18.10.2017 09:00:00 13,0 12,4 - - 18 10 - - ZO 1009,6 4,0 0 0,0
18.10.2017 08:00:00 12,3 11,9 - - 13 7 - - OZO 1009,7 2,5 0 0,0
18.10.2017 07:00:00 11,9 11,3 - - 24 13 - - OZO 1009,3 4,0 0 0,0
18.10.2017 06:00:00 11,9 11,0 - - 22 12 - - OZO 1009,8 8 0 0,0
18.10.2017 05:00:00 11,9 10,8 - - 24 13 - - OZO 1010,1 10 0 0,0
18.10.2017 04:00:00 11,8 10,3 - - 26 14 - - OZO 1010,4 15 0 0,0
18.10.2017 03:00:00 11,6 9,9 - - 22 12 - - OZO 1011,1 20 0 0,0
18.10.2017 02:00:00 11,5 9,3 - - 15 8 - - O 1011,8 20 0 0,0
18.10.2017 01:00:00 11,1 9,4 - - 13 7 - - ONO 1012,5 20 - 0,0
18.10.2017 00:00:00 10,8 9,6 - - 13 7 - - O 1013,5 15 0 0,0
17.10.2017 23:00:00 11,1 9,8 - - 11 6 - - O 1014,5 12 0 0,0
17.10.2017 22:00:00 11,2 9,6 - - 9 5 - - O 1015,1 20 0 0,0
17.10.2017 21:00:00 11,1 9,3 - - 11 6 - - OZO 1015,7 20 0 0,0
17.10.2017 20:00:00 10,7 9,7 - - 11 6 - - OZO 1015,9 15 0 0,0
17.10.2017 19:00:00 11,2 8,6 - - 9 5 - - OZO 1015,6 20 0 0,0
17.10.2017 18:00:00 11,6 8,0 - - 9 5 - - OZO 1015,8 18 0 0,0
17.10.2017 17:00:00 12,2 8,3 - - 13 7 - - ZO 1016,4 25 0 0,0
17.10.2017 16:00:00 12,5 7,7 - - 9 5 - - ZO 1017,0 23 0 0,0
17.10.2017 15:00:00 13,1 10,4 - - 9 5 - - ZO 1017,7 20 0 0,0
17.10.2017 14:00:00 13,5 10,1 - - 11 6 - - ZZO 1018,4 18 0 0,0
17.10.2017 13:00:00 13,8 9,6 - - 8 4 - - ZZO 1019,1 17 0 0,0
17.10.2017 12:00:00 14,0 9,7 - - 15 8 - - Z 1019,9 17 18 0,0
17.10.2017 11:00:00 14,0 10,7 - - 9 5 - - ZZW 1019,8 14 6 0,0
17.10.2017 10:00:00 12,5 10,0 14,9 15,0 5 3 - - ZZW 1019,7 18 12 0,0
17.10.2017 09:00:00 11,0 9,5 - - 4 2 - - Z 1019,9 15 0 0,0
17.10.2017 08:00:00 10,9 9,1 - - 5 3 - - Z 1019,5 12 0 0,0
17.10.2017 07:00:00 10,1 8,4 - - 9 5 - - Z 1019,6 10 0 0,0
17.10.2017 06:00:00 9,8 8,1 - - 9 5 - - Z 1019,2 15 0 0,0
17.10.2017 05:00:00 10,1 8,4 - - 9 5 - - ZW 1019,3 8 0 0,0
17.10.2017 04:00:00 10,7 8,5 - - 11 6 - - ZZW 1019,5 15 0 0,0
17.10.2017 03:00:00 11,5 8,7 - - 13 7 - - ZW 1019,7 12 0 0,0
17.10.2017 02:00:00 11,7 8,3 - - 16 9 - - ZW 1019,8 15 0 0,0
17.10.2017 01:00:00 11,2 8,0 - - 18 10 - - ZW 1019,7 15 - 0,0
17.10.2017 00:00:00 11,9 8,3 - - 22 12 - - ZW 1019,4 12 0 0,0
16.10.2017 23:00:00 12,2 8,3 - - 21 11 - - ZW 1018,8 12 0 0,0
16.10.2017 22:00:00 12,9 8,4 - - 28 15 46 25 ZW 1018,2 12 0 0,0
16.10.2017 21:00:00 12,6 7,4 - - 28 15 57 31 WZW 1017,2 12 0 0,0
16.10.2017 20:00:00 13,0 7,8 - - 34 18 54 29 ZW 1016,2 10 0 0,0
16.10.2017 19:00:00 13,2 7,3 - - 37 20 63 34 WZW 1015,5 9 0 0,0
16.10.2017 18:00:00 13,7 8,0 - - 37 20 76 41 ZW 1014,3 9 18 0,0
16.10.2017 17:00:00 14,1 7,5 - - 48 26 81 44 ZW 1013,3 8 24 0,0
16.10.2017 16:00:00 15,1 7,7 - - 52 28 91 49 ZW 1012,2 9 30 0,0
16.10.2017 15:00:00 15,7 8,8 - - 54 29 94 51 ZZW 1011,0 9 54 0,0
16.10.2017 14:00:00 16,0 8,5 - - 57 31 91 49 ZW 1010,5 8 60 0,0
16.10.2017 13:00:00 16,1 9,8 - - 57 31 87 47 ZZW 1009,7 9 54 0,0
16.10.2017 12:00:00 15,7 9,1 - - 55 30 87 47 ZZW 1009,0 9 60 0,0
16.10.2017 11:00:00 15,7 10,6 - - 55 30 83 45 ZZW 1008,3 8 60 0,0
16.10.2017 10:00:00 15,8 10,7 15,4 15,0 57 31 87 47 ZZW 1007,5 7 36 0,0
16.10.2017 09:00:00 16,8 12,4 - - 48 26 76 41 Z 1006,7 6 0 0,0
16.10.2017 08:00:00 17,4 14,3 - - 44 24 80 43 Z 1005,6 6 0 0,0
16.10.2017 07:00:00 19,3 13,5 - - 48 26 80 43 Z 1005,4 8 0 0,0
16.10.2017 06:00:00 20,5 13,0 - - 48 26 74 40 Z 1005,4 12 0 0,0
16.10.2017 05:00:00 20,2 11,2 - - 37 20 57 31 ZO 1005,8 12 0 0,0
16.10.2017 04:00:00 19,2 12,1 - - 37 20 61 33 ZZO 1007,2 10 0 0,0
16.10.2017 03:00:00 18,0 12,7 - - 34 18 55 30 ZZO 1010,1 10 0 0,0
16.10.2017 02:00:00 17,6 12,6 - - 26 14 46 25 ZO 1010,6 10 0 0,0
16.10.2017 01:00:00 16,3 15,0 - - 24 13 48 26 Z 1011,4 8 - 0,0
16.10.2017 00:00:00 15,6 15,5 - - 26 14 - - ZZO 1012,7 1,5 0 0,0
15.10.2017 23:00:00 15,8 15,6 - - 16 9 - - Z 1013,2 0,5 0 0,0
15.10.2017 22:00:00 15,2 14,7 - - 16 9 - - Z 1013,6 4,0 0 0,0
15.10.2017 21:00:00 15,5 15,4 - - 21 11 - - ZZW 1013,5 2,5 0 0,0
15.10.2017 20:00:00 15,4 15,2 - - 22 12 - - Z 1013,2 0,8 0 0,2
15.10.2017 19:00:00 15,1 15,0 - - 21 11 - - Z 1013,5 1,5 0 0,0
15.10.2017 18:00:00 14,7 14,5 - - 18 10 - - Z 1013,5 1,2 0 0,0
15.10.2017 17:00:00 14,7 14,2 - - 18 10 - - Z 1013,6 2,0 0 0,0
15.10.2017 16:00:00 14,9 13,4 - - 26 14 - - Z 1014,2 5 0 0,0
15.10.2017 15:00:00 15,4 14,3 - - 28 15 - - Z 1014,5 4,5 0 0,0
15.10.2017 14:00:00 16,0 14,6 - - 31 17 46 25 Z 1014,9 6 0 0,0
15.10.2017 13:00:00 16,0 14,4 - - 26 14 48 26 Z 1015,2 8 30 0,0
15.10.2017 12:00:00 16,4 13,4 - - 28 15 - - Z 1015,5 15 36 0,0
15.10.2017 11:00:00 15,7 12,9 - - 21 11 - - Z 1015,8 15 6 0,0
15.10.2017 10:00:00 14,6 12,3 15,2 15,0 15 8 - - Z 1016,4 15 0 0,0
15.10.2017 09:00:00 14,4 11,9 - - 21 11 - - Z 1016,2 15 0 0,0
15.10.2017 08:00:00 14,1 12,1 - - 11 6 - - Z 1016,2 10 0 0,0
15.10.2017 07:00:00 14,0 11,9 - - 11 6 - - Z 1016,4 12 0 0,0
15.10.2017 06:00:00 14,0 11,7 - - 16 9 - - ZZW 1016,5 13 0 0,0
15.10.2017 05:00:00 13,9 12,1 - - 18 10 - - ZZW 1016,6 10 0 0,0
15.10.2017 04:00:00 13,8 13,2 - - 16 9 - - Z 1016,7 4,5 0 0,0
15.10.2017 03:00:00 13,5 13,2 - - 16 9 - - Z 1017,1 4,1 0 0,0
15.10.2017 02:00:00 13,4 13,4 - - 13 7 - - Z 1017,9 2,0 0 0,0
15.10.2017 01:00:00 13,5 13,5 - - 15 8 - - Z 1018,2 0,3 - 0,0
15.10.2017 00:00:00 14,2 14,1 - - 16 9 - - Z 1018,2 0,4 0 0,0
14.10.2017 23:00:00 13,5 13,1 - - 16 9 - - Z 1018,4 2,4 0 0,0
14.10.2017 22:00:00 13,9 13,1 - - 22 12 - - ZZO 1018,7 5 0 0,0
14.10.2017 21:00:00 14,0 13,0 - - 24 13 - - ZO 1019,4 8 0 0,0
14.10.2017 20:00:00 13,8 12,9 - - 24 13 - - ZO 1020,3 6 0 0,0
14.10.2017 19:00:00 13,7 12,2 - - 15 8 - - ZZO 1020,7 6 6 0,0
14.10.2017 18:00:00 15,3 12,5 - - 21 11 - - ZZO 1020,6 15 60 0,0
14.10.2017 17:00:00 16,3 12,5 - - 22 12 - - ZZO 1021,1 20 54 0,0
14.10.2017 16:00:00 16,2 13,4 - - 18 10 - - Z 1022,3 28 12 0,0
14.10.2017 15:00:00 15,5 13,1 - - 16 9 - - Z 1023,0 12 0 0,0
14.10.2017 14:00:00 15,3 13,6 - - 18 10 - - Z 1023,4 7 0 0,0
14.10.2017 13:00:00 15,7 14,0 - - 16 9 - - ZZW 1024,0 7 0 0,0
14.10.2017 12:00:00 15,8 14,3 - - 15 8 - - Z 1024,2 10 0 0,0
14.10.2017 11:00:00 16,1 13,9 - - 16 9 - - Z 1024,1 12 0 0,0
14.10.2017 10:00:00 15,7 14,2 15,2 15,0 11 6 - - ZZW 1024,1 8 0 0,0
14.10.2017 09:00:00 15,5 14,1 - - 13 7 - - Z 1023,6 8 0 0,0
14.10.2017 08:00:00 15,5 14,0 - - 13 7 - - ZZW 1023,3 12 0 0,0
14.10.2017 07:00:00 15,5 14,2 - - 13 7 - - WZW 1023,4 12 0 0,0
14.10.2017 06:00:00 15,5 14,4 - - 15 8 - - ZW 1023,1 8 0 0,0
14.10.2017 05:00:00 15,4 14,8 - - 16 9 - - ZW 1023,1 8 0 0,0
14.10.2017 04:00:00 15,3 14,8 - - 16 9 - - ZW 1023,1 5 0 0,0
14.10.2017 03:00:00 15,2 14,9 - - 21 11 - - ZZW 1023,3 5 0 0,0
14.10.2017 02:00:00 15,3 15,0 - - 22 12 - - ZZW 1023,4 4,0 0 0,0
14.10.2017 01:00:00 15,3 15,0 - - 22 12 - - ZW 1023,1 4,0 - 0,0
14.10.2017 00:00:00 15,5 15,0 - - 24 13 - - ZW 1023,1 4,0 0 0,0
13.10.2017 23:00:00 15,5 14,9 - - 24 13 - - ZW 1023,0 5 0 0,0
13.10.2017 22:00:00 15,5 15,0 - - 26 14 - - ZW 1022,8 4,0 0 0,0
13.10.2017 21:00:00 15,6 14,9 - - 24 13 - - ZZW 1022,8 4,0 0 0,0
13.10.2017 20:00:00 15,6 14,9 - - 26 14 - - ZZW 1022,6 6 0 0,0
13.10.2017 19:00:00 15,5 14,9 - - 24 13 - - ZZW 1022,5 6 0 0,0
13.10.2017 18:00:00 15,6 15,1 - - 26 14 - - ZZW 1022,1 4,0 0 0,0
13.10.2017 17:00:00 15,7 15,1 - - 24 13 - - ZZW 1022,0 5 0 0,0
13.10.2017 16:00:00 15,9 15,1 - - 28 15 - - ZZW 1021,8 5 0 0,0
13.10.2017 15:00:00 16,5 15,2 - - 29 16 46 25 ZZW 1021,6 6 0 0,0
13.10.2017 14:00:00 16,3 15,1 - - 29 16 46 25 ZZW 1021,9 6 0 0,0
13.10.2017 13:00:00 16,4 15,1 - - 28 15 46 25 ZZW 1021,8 6 18 0,0

tt = temperatuur
td = dauwpunt
tt -20cm = temperatuur -20cm
tt -100cm = temperatuur -100cm
ff = windsnelheid
fx = windstoten
dd = windrichting
ppp = luchtdruk
vv = zicht
sd = Zonneschijnduur
rr = neerslag

Weerstations in de omgeving